Location: Koslow
(50.3020°N, 18.5663°E)
Time: 21:23:10
(UTC+00:00)

STARLINK-1338 - Pass Details

Date: 07 June 2020
Orbit: 548 x 551 km, 53.0° (Epoch: 04 July)

Event Time Altitude Azimuth Distance (km) Brightness Sun altitude
Rises 00:07:42 0° 280° (W) 2,715 7.1 -14.6°
Reaches altitude 10° 00:09:58 10° 285° (WNW) 1,820 6.2 -14.5°
Maximum altitude 00:14:03 59° 5° (N) 634 4.2 -14.3°
Drops below altitude 10° 00:18:08 10° 86° (E) 1,815 6.6 -14.0°
Sets 00:20:24 0° 90° (E) 2,706 7.5 -13.9°
